Change the Weather History Date:

Sunday, June 23, 2013

  Actual Average (KLWV) Record (KLWV)
Temperature  
Mean Temperature 74 °F 76 °F  
Max Temperature 80 °F 87 °F 93 °F (2010)
Min Temperature 69 °F 66 °F 43 °F (1992)
Degree Days  
Heating Degree Days 0 0  
Month to date heating degree days 6  
Since 1 June heating degree days 6  
Since 1 July heating degree days 4679  
Cooling Degree Days 10 11  
Month to date cooling degree days 207  
Year to date cooling degree days 346  
Since 1 June cooling degree days 207  
Growing Degree Days 24 (Base 50)    
Moisture  
Dew Point 68 °F    
Average Humidity 83    
Maximum Humidity 91    
Minimum Humidity 62    
Precipitation  
Precipitation 0.09 in 0.12 in 1.88 in (2007)
Month to date precipitation 3.01  
Year to date precipitation 20.57  
Sea Level Pressure  
Sea Level Pressure 30.09 in    
Wind  
Wind Speed 4 mph (South)    
Max Wind Speed 18 mph    
Max Gust Speed 23 mph    
Visibility 7 miles    
Events Fog , Rain    
T = Trace of Precipitation, MM = Missing Value Source: NWS Daily Summary

Daily Weather History Graph

Daily Weather History Graph

Search for Another Location

Airport or City:

Trip Planner

Search our weather history database for the weather conditions in past years. The results will help you decide how hot, cold, wet, or windy it might be!

Date:

Astronomy

Jun. 23, 2013 Rise Set
Actual Time 5:25 AM CDT 8:20 PM CDT
Civil Twilight 4:53 AM CDT 8:52 PM CDT
Nautical Twilight 4:12 AM CDT 9:32 PM CDT
Astronomical Twilight 3:26 AM CDT 10:19 PM CDT
Moon 8:32 PM CDT (6/23) 5:42 AM CDT (6/23)
Length of Visible Light 15h 58m
Length of Day
14h 54m
Full, 100% of the Moon is Illuminated
Jun 23
Full
Jun 29
Last Quarter
Jul 8
New
Jul 15
First Quarter
Jul 22
Full

Hourly Weather History & Observations

Time (CDT) Temp. Heat Index Dew Point Humidity Pressure Visibility Wind Dir Wind Speed Gust Speed Precip Events Conditions
12:15 AM 70.9 °F - 67.3 °F 88% 30.08 in 5.0 mi North 5.8 mph - N/A   Scattered Clouds
12:35 AM 70.7 °F - 67.5 °F 89% 30.08 in 3.0 mi NNW 5.8 mph - N/A   Mostly Cloudy
12:55 AM 70.7 °F - 67.5 °F 89% 30.08 in 3.0 mi Calm Calm - N/A   Mostly Cloudy
1:15 AM 70.5 °F - 67.5 °F 90% 30.08 in 3.0 mi Calm Calm - N/A   Scattered Clouds
1:35 AM 70.2 °F - 67.1 °F 90% 30.07 in 3.0 mi Calm Calm - N/A   Scattered Clouds
1:55 AM 69.6 °F - 66.6 °F 90% 30.07 in 2.0 mi Calm Calm - N/A   Clear
2:15 AM 69.1 °F - 66.2 °F 91% 30.09 in 1.5 mi Calm Calm - N/A   Mist
2:35 AM 69.1 °F - 66.2 °F 91% 30.09 in 1.8 mi Calm Calm - N/A   Mist
2:55 AM 69.1 °F - 66.2 °F 91% 30.09 in 1.5 mi Calm Calm - N/A   Mist
3:15 AM 69.1 °F - 66.4 °F 91% 30.09 in 1.0 mi Calm Calm - N/A   Overcast
3:35 AM 69.3 °F - 66.6 °F 91% 30.09 in 0.8 mi Calm Calm - N/A   Overcast
3:55 AM 69.8 °F - 67.1 °F 91% 30.10 in 0.2 mi Calm Calm - N/A Fog Fog
4:15 AM 69.6 °F - 66.9 °F 91% 30.09 in 0.2 mi Calm Calm - N/A Fog Fog
4:35 AM 69.6 °F - 66.9 °F 91% 30.09 in 0.5 mi East 3.5 mph - N/A Fog Fog
4:55 AM 69.6 °F - 66.9 °F 91% 30.09 in 2.0 mi East 4.6 mph - N/A   Mostly Cloudy
5:15 AM 69.8 °F - 67.1 °F 91% 30.09 in 2.0 mi Calm Calm - N/A   Clear
5:35 AM 69.4 °F - 66.7 °F 91% 30.09 in 2.0 mi Calm Calm - N/A   Clear
5:55 AM 70.2 °F - 67.5 °F 91% 30.10 in 1.5 mi Calm Calm - N/A   Mist
6:15 AM 70.7 °F - 68.0 °F 91% 30.10 in 2.0 mi SE 3.5 mph - N/A   Clear
6:35 AM 71.2 °F - 68.4 °F 91% 30.10 in 2.5 mi SE 4.6 mph - N/A   Clear
6:55 AM 71.8 °F - 68.9 °F 91% 30.11 in 3.0 mi SSE 3.5 mph - N/A   Clear
7:15 AM 73.4 °F - 69.3 °F 87% 30.11 in 4.0 mi SE 5.8 mph - N/A   Clear
7:35 AM 74.8 °F - 69.1 °F 82% 30.11 in 5.0 mi SE 5.8 mph - N/A   Haze
7:55 AM 75.4 °F - 68.9 °F 80% 30.12 in 5.0 mi SE 5.8 mph - N/A   Haze
8:15 AM 75.9 °F - 69.3 °F 80% 30.12 in 5.0 mi SE 5.8 mph - N/A   Haze
8:35 AM 76.3 °F - 69.4 °F 79% 30.11 in 7.0 mi South 5.8 mph - N/A   Clear
8:55 AM 77.0 °F - 68.9 °F 76% 30.11 in 10.0 mi South 5.8 mph - N/A   Clear
9:15 AM 78.1 °F - 69.1 °F 74% 30.10 in 10.0 mi South 8.1 mph - N/A   Clear
9:35 AM 78.8 °F - 69.4 °F 73% 30.10 in 10.0 mi South 9.2 mph - N/A   Clear
9:55 AM 79.9 °F - 69.4 °F 70% 30.11 in 10.0 mi SSW 10.4 mph - N/A   Scattered Clouds
10:15 AM 80.2 °F 82.7 °F 67.6 °F 65% 30.11 in 10.0 mi SW 13.8 mph 17.3 mph N/A   Scattered Clouds
10:35 AM 79.0 °F - 68.0 °F 69% 30.11 in 10.0 mi SSW 10.4 mph - N/A   Scattered Clouds
10:55 AM 78.6 °F - 65.5 °F 64% 30.12 in 10.0 mi SSW 18.4 mph 23.0 mph N/A   Clear
11:15 AM 78.6 °F - 66.2 °F 66% 30.11 in 10.0 mi SSW 8.1 mph - N/A   Scattered Clouds
11:35 AM 78.3 °F - 64.4 °F 62% 30.13 in 10.0 mi SSW 12.7 mph - N/A   Clear
11:55 AM 77.4 °F - 65.5 °F 67% 30.13 in 10.0 mi SSW 13.8 mph 19.6 mph N/A   Scattered Clouds
12:15 PM 77.9 °F - 66.7 °F 68% 30.14 in 10.0 mi SSW 13.8 mph 19.6 mph N/A   Scattered Clouds
12:35 PM 76.8 °F - 66.4 °F 70% 30.14 in 10.0 mi SSW 13.8 mph 19.6 mph N/A   Clear
12:55 PM 76.1 °F - 66.6 °F 72% 30.14 in 10.0 mi SSW 11.5 mph 18.4 mph N/A   Clear
1:15 PM 75.4 °F - 66.6 °F 74% 30.14 in 10.0 mi SW 9.2 mph - N/A   Scattered Clouds
1:35 PM 74.3 °F - 66.4 °F 76% 30.14 in 10.0 mi SSW 10.4 mph - N/A   Mostly Cloudy
1:55 PM 73.6 °F - 67.1 °F 80% 30.13 in 10.0 mi WSW 9.2 mph - N/A Rain Light Rain
2:15 PM 72.7 °F - 67.5 °F 84% 30.13 in 10.0 mi WSW 12.7 mph - 0.01 in Rain Light Rain
2:35 PM 71.8 °F - 67.1 °F 85% 30.12 in 7.0 mi WSW 15.0 mph - 0.02 in Rain Light Rain
2:55 PM 71.6 °F - 66.6 °F 84% 30.12 in 7.0 mi WSW 11.5 mph - 0.03 in Rain Light Rain
3:15 PM 71.6 °F - 66.9 °F 85% 30.10 in 7.0 mi Calm Calm - 0.02 in Rain Rain
3:35 PM 72.0 °F - 67.3 °F 85% 30.09 in 7.0 mi Calm Calm - 0.04 in Rain Rain
3:55 PM 72.7 °F - 68.0 °F 85% 30.07 in 10.0 mi Calm Calm - 0.05 in Rain Light Rain
4:15 PM 73.2 °F - 67.8 °F 83% 30.06 in 10.0 mi Calm Calm - 0.01 in Rain Rain
4:35 PM 74.3 °F - 69.1 °F 84% 30.06 in 10.0 mi Calm Calm - 0.01 in Rain Light Rain
4:55 PM 75.4 °F - 70.2 °F 84% 30.06 in 10.0 mi ENE 4.6 mph - 0.01 in   Scattered Clouds
5:15 PM 75.9 °F - 70.3 °F 83% 30.06 in 10.0 mi East 6.9 mph - N/A   Mostly Cloudy
5:35 PM 74.8 °F - 69.6 °F 84% 30.06 in 10.0 mi ESE 6.9 mph - N/A   Overcast
5:55 PM 74.8 °F - 69.4 °F 83% 30.06 in 10.0 mi SE 6.9 mph - N/A   Overcast
6:15 PM 75.2 °F - 69.3 °F 82% 30.06 in 10.0 mi SSE 6.9 mph - N/A   Overcast
6:35 PM 75.2 °F - 69.6 °F 83% 30.06 in 10.0 mi Calm Calm - N/A   Scattered Clouds
6:55 PM 75.2 °F - 69.8 °F 83% 30.07 in 10.0 mi Calm Calm - N/A Rain Light Rain
7:15 PM 75.2 °F - 69.8 °F 83% 30.05 in 10.0 mi Calm Calm - N/A   Overcast
7:35 PM 75.2 °F - 70.2 °F 84% 30.04 in 7.0 mi Calm Calm - N/A   Scattered Clouds
7:55 PM 74.3 °F - 70.0 °F 86% 30.05 in 7.0 mi Calm Calm - N/A   Clear
8:15 PM 74.3 °F - 70.2 °F 87% 30.05 in 7.0 mi SSE 3.5 mph - N/A   Clear
8:35 PM 74.3 °F - 70.2 °F 87% 30.05 in 7.0 mi Calm Calm - N/A   Mostly Cloudy
8:55 PM 74.3 °F - 70.3 °F 87% 30.05 in 7.0 mi Calm Calm - N/A   Mostly Cloudy
9:15 PM 73.9 °F - 70.2 °F 88% 30.05 in 7.0 mi SE 5.8 mph - N/A   Scattered Clouds
9:35 PM 74.5 °F - 70.3 °F 87% 30.06 in 7.0 mi South 4.6 mph - N/A   Clear
9:55 PM 75.4 °F - 70.7 °F 85% 30.08 in 7.0 mi WSW 12.7 mph - N/A   Scattered Clouds
10:15 PM 74.7 °F - 69.3 °F 83% 30.08 in 10.0 mi SW 5.8 mph - N/A   Mostly Cloudy
10:35 PM 73.8 °F - 68.0 °F 82% 30.07 in 10.0 mi SSE 4.6 mph - N/A   Scattered Clouds
10:55 PM 73.0 °F - 68.4 °F 85% 30.06 in 7.0 mi SE 6.9 mph - N/A   Clear
11:15 PM 72.7 °F - 68.2 °F 86% 30.06 in 10.0 mi ESE 3.5 mph - N/A   Clear
11:35 PM 72.5 °F - 68.0 °F 86% 30.06 in 10.0 mi ESE 4.6 mph - N/A   Clear
11:55 PM 72.9 °F - 68.0 °F 85% 30.04 in 10.0 mi ESE 4.6 mph - N/A   Clear